Weather in Chindant Vtoroy

Russia / Zabaykalsky Krai     50°22′25″N   116°22′49″E
temp.,
°C
wind,
m/s
gust,
m/s
humid.,
%
clouds,
%
prec.,
mm/h
press.,
hPa
HPBL,
m
27 january, wed
wed2700:00−22wnw5129699 0.1 1022326
03:00−25w489593 0.1 1023137
06:00−25wnw4994100 0.0 1023179
09:00−27wnw359795 0.0 102486
12:00−23nw489799 0.0 1024339
15:00−22nw6989100 0.0 1023717
18:00−25nw499498 0.0 1025149
21:00−26nnw349699 0.0 102743
28 january, thu
thu2800:00−27nw1210097 0.0 102719
03:00−29nnw2210098 0.0 102819
06:00−31nw2210099 0.0 102919
09:00−33w1210088 0.0 103019
12:00−29w23945 0.0 1029118
15:00−27w24923 0.0 1027257
18:00−31sw22964 0.0 102619
21:00−31ssw129348 0.0 102519
29 january, fri
fri2900:00−28s2287100 0.0 102419
03:00−29s2391100 0.0 102219
06:00−30s2298100 0.0 102019
09:00−28s2299100 0.1 101926
12:00−25se1196100 0.0 101767
15:00−24nnw3496100 0.1 1017340
18:00−29nnw479698 0.0 1021115
21:00−32nnw349776 0.0 102667
30 january, sat
sat3000:00−35n239218 0.0 102820
03:00−36nnw22909 0.0 102919
06:00−36nne11890 0.0 103019
09:00−37e009115 0.0 103119
12:00−31e118311 0.0 103141
15:00−30sw018436 0.0 1030121
18:00−33s118874 0.0 103019
21:00−34sse128571 0.0 103119
31 january, sun
sun3100:00−32sse129699 0.0 103019
03:00−32se229999 0.1 102919
06:00−31ese2298100 0.1 102721
09:00−31se2297100 0.1 102819
12:00−29ne119478 0.0 102773
15:00−27nnw239470 0.0 1027237
18:00−32nw339768 0.0 102919
21:00−35nnw239634 0.0 103119